Probability
0 0 0 0 0 0 0 0 0 0 1 1 1 1 1 1 1 1 1 2 3 3 1 0 0 0 0 0 0 0 0 0 0 0 0 0 0 0 0 0 0 0 0 0 0 0 0 0 0
0 0 0 0 0 0 0 0 1 2 3 2 2 2 3 3 3 3 3 5 7 6 4 2 2 2 1 0 0 0 0 0 0 0 0 0 0 0 0 0 0 0 0 0 0 0 0 0 0
0 0 0 0 0 0 0 0 3 6 6 5 6 6 6 7 6 5 7 12 15 13 8 6 7 6 3 1 1 0 0 0 0 0 0 0 0 0 0 0 0 0 0 0 0 0 0 0 0
0 0 0 0 0 0 0 2 7 10 10 10 13 15 14 12 11 10 11 17 20 17 12 10 10 9 6 3 2 1 1 1 0 0 0 0 0 0 0 0 0 0 0 0 0 0 0 0 0
0 0 0 0 0 0 1 4 9 13 13 16 22 25 22 19 19 17 15 19 22 19 14 12 11 9 6 4 3 3 2 2 1 1 1 1 1 1 0 0 0 0 0 0 0 0 0 0 0
0 0 0 0 0 0 1 4 8 12 13 18 26 29 25 23 23 21 19 21 23 20 15 12 10 7 4 3 3 3 4 4 3 2 2 2 2 1 0 0 0 0 1 0 0 0 0 0 0
0 0 0 0 0 0 1 3 5 8 12 17 23 27 23 21 21 20 21 23 22 19 16 12 9 6 3 2 2 3 5 5 4 3 3 3 2 1 0 0 0 0 0 0 0 0 0 0 0
0 0 0 0 0 0 1 3 4 6 11 15 19 21 20 18 18 21 24 24 19 15 14 11 8 6 2 0 1 2 4 4 3 2 2 1 1 0 0 1 2 1 0 1 1 1 0 0 0
0 0 0 0 0 0 1 3 3 7 12 16 18 21 22 22 24 27 28 23 15 11 9 7 6 5 2 0 0 1 2 2 1 1 1 0 0 0 0 2 3 2 2 2 2 2 1 0 0
0 0 0 0 0 0 1 3 4 7 12 17 21 26 30 31 33 34 28 19 11 7 6 6 5 3 1 0 0 0 1 1 1 0 0 0 0 0 0 1 3 3 3 3 3 3 2 1 1
0 0 1 1 1 1 1 2 5 8 11 18 25 31 35 36 37 35 28 18 10 7 5 5 3 1 0 0 0 0 1 1 1 0 0 0 0 0 0 1 2 3 3 3 3 3 3 3 2
0 0 1 2 2 2 1 2 6 9 12 19 26 31 33 35 37 36 30 22 14 9 6 5 5 5 4 3 2 1 2 1 1 2 2 1 0 0 0 0 1 2 3 3 3 3 3 3 3
0 0 0 1 1 2 2 4 7 11 14 18 25 30 29 29 34 36 32 25 19 15 13 12 13 13 12 8 5 4 3 3 3 5 4 2 1 0 1 1 1 2 3 3 3 3 3 3 2
0 0 0 0 1 2 4 5 6 10 13 17 22 27 25 24 29 33 30 26 25 24 22 22 19 17 15 11 8 6 6 6 7 9 8 5 2 1 1 1 1 2 2 2 2 2 2 1 1
0 0 0 0 1 2 3 5 6 9 13 16 19 22 21 20 23 27 28 28 29 30 27 22 17 14 13 11 9 8 7 8 9 10 8 6 3 1 1 1 0 1 1 1 1 1 1 0 0
0 0 0 0 0 1 1 3 5 9 12 14 14 17 16 15 16 20 23 25 27 28 24 18 13 11 10 9 8 8 7 7 6 6 5 3 1 0 0 0 0 0 0 0 0 0 0 0 0
0 0 0 0 0 0 1 2 4 9 11 10 10 11 13 12 10 13 16 20 22 22 18 14 10 8 7 7 7 6 5 4 3 2 1 1 0 0 0 0 0 0 0 0 0 0 0 0 0
0 0 0 0 0 1 2 2 4 7 8 7 6 7 10 10 9 10 13 15 16 15 12 9 6 4 4 4 4 3 2 2 1 1 1 1 0 0 0 0 0 0 0 0 0 0 0 0 0
0 0 0 0 0 0 1 2 3 5 5 5 4 5 7 7 8 9 11 11 10 8 5 4 3 2 1 1 1 1 1 0 0 0 0 0 0 0 0 0 0 0 0 0 0 0 0 0 0
0 0 0 0 0 0 1 1 2 3 3 3 4 5 5 5 6 8 9 8 6 3 2 1 1 0 0 0 0 0 0 0 0 0 0 0 0 0 0 0 0 0 0 0 0 0 0 0 0
0 0 0 0 0 1 1 1 1 1 1 3 4 5 5 4 5 6 7 7 4 2 0 0 0 0 0 0 0 0 0 0 0 0 0 0 0 0 0 0 0 0 0 0 0 0 0 0 0
0 0 0 0 0 0 0 0 0 0 1 2 3 3 3 3 3 5 6 5 2 1 0 0 0 0 0 0 0 0 0 0 0 0 0 0 0 0 0 0 0 0 0 0 0 0 0 0 0
0 0 0 0 0 0 0 0 0 0 1 1 1 1 2 2 3 4 4 3 1 0 0 0 0 0 0 0 0 0 0 0 0 0 0 0 0 0 0 0 0 0 0 0 0 0 0 0 0
0 0 0 0 0 0 0 0 0 0 0 0 0 1 2 2 2 2 1 1 0 0 0 0 0 0 0 0 0 0 0 0 0 0 0 0 0 0 0 0 0 0 0 0 0 0 0 0 0
0 0 0 0 0 0 0 0 0 0 0 0 0 1 3 3 1 0 0 0 0 0 0 0 0 0 0 0 0 0 0 0 0 0 0 0 0 0 0 0 0 0 0 0 0 0 0 0 0
0 0 0 0 0 0 0 0 0 0 0 0 0 1 3 2 0 0 0 0 0 0 0 0 0 0 0 0 0 0 0 0 0 0 0 0 0 0 0 0 0 0 0 0 0 0 0 0 0
0 0 0 0 0 0 0 0 0 0 0 0 0 0 1 1 0 0 0 0 0 0 0 0 1 1 0 0 0 0 0 0 0 0 0 0 0 0 0 0 0 0 0 0 0 0 0 0 0
0 0 0 0 0 0 0 0 0 0 0 0 0 0 0 0 0 0 0 0 0 0 0 1 2 2 1 0 0 0 0 0 0 0 0 0 0 0 0 0 0 0 0 0 0 0 0 0 0
0 0 0 0 0 0 0 0 0 0 0 0 0 0 0 0 0 0 0 0 0 1 1 2 3 2 1 0 0 0 0 0 0 0 0 0 0 0 0 0 0 0 0 0 0 0 0 0 0
0 0 0 0 0 0 0 0 0 0 0 0 0 0 0 0 0 0 0 0 1 2 2 3 3 1 0 0 0 0 0 0 0 0 0 0 0 0 0 0 0 0 0 0 0 0 0 0 0
Wind_Speed
9 5 2 0 1 2 2 5 5 5 5 5 3 5 7 5 4 5 6 17 19 17 14 16 18 18 18 18 18 17 17 17 16 16 16 15 15 15 14 14 13 13 12 12 11 11 11 11 10
6 5 2 1 2 1 4 5 7 5 0 3 4 6 8 8 9 10 9 17 20 16 12 14 18 18 18 18 17 17 17 16 16 15 15 15 14 14 13 13 13 12 12 11 11 10 10 10 9
6 4 2 1 1 3 5 5 7 3 4 2 2 5 7 6 8 6 12 19 16 13 11 14 20 19 18 17 16 16 16 16 16 15 15 14 14 13 12 12 12 11 11 11 10 9 9 8 8
3 2 1 1 4 7 7 7 5 0 6 5 3 6 5 4 5 12 19 18 16 12 10 14 19 18 18 17 16 16 16 16 15 15 14 14 13 13 12 11 11 10 10 10 10 9 8 7 6
2 2 1 1 5 6 6 4 2 3 3 5 7 8 6 6 15 20 18 17 15 11 9 12 18 18 17 17 16 16 16 15 15 14 14 13 13 12 12 11 10 10 10 9 9 9 7 6 5
2 2 1 3 5 3 2 2 6 6 6 5 7 7 4 8 14 16 16 14 14 12 9 10 17 18 17 16 16 16 15 15 14 14 13 13 12 11 11 10 10 10 10 9 8 8 7 6 5
3 1 3 4 4 2 1 4 5 6 7 4 6 6 4 8 10 14 13 14 12 11 10 7 9 12 16 16 15 15 14 14 14 13 13 12 12 11 11 10 10 9 9 9 8 8 8 7 5
4 2 3 4 3 3 0 4 5 7 7 5 4 7 7 7 7 12 13 12 11 9 9 7 6 6 7 9 14 15 14 13 13 12 12 11 10 10 10 9 9 9 9 9 9 8 8 7 6
2 1 4 5 3 2 2 5 5 5 8 4 2 5 9 9 8 12 12 10 9 10 8 8 7 6 6 6 10 11 12 12 11 9 11 8 4 4 5 8 10 10 10 9 9 8 8 7 6
5 4 8 5 2 2 3 5 5 6 7 5 3 5 8 8 9 12 13 11 10 10 10 9 9 8 7 6 6 4 5 5 4 3 4 3 3 3 5 6 10 10 9 8 8 8 7 5 2
5 6 6 3 1 3 4 5 4 8 4 4 7 7 6 6 7 9 10 11 10 10 10 9 8 8 7 4 4 2 2 3 3 4 3 3 2 2 2 2 4 4 6 3 4 4 2 2 2
4 5 3 2 1 4 4 4 7 6 5 4 5 7 6 4 6 8 9 9 8 9 8 7 7 7 6 5 4 4 3 2 2 3 4 3 2 2 2 2 2 2 1 2 2 2 3 3 4
2 3 0 3 5 7 8 8 8 6 6 7 6 5 4 4 5 6 7 7 7 7 7 6 7 7 6 5 3 4 3 3 3 2 3 3 2 2 2 1 1 2 2 2 2 2 3 3 3
3 3 2 2 5 5 10 7 7 3 4 6 6 5 4 3 5 8 10 9 8 8 7 7 7 6 7 5 4 3 3 3 3 3 3 3 3 3 2 2 1 1 2 2 2 2 2 1 1
3 4 6 3 4 3 8 8 5 3 5 6 5 4 4 3 4 7 9 9 8 8 7 7 7 6 7 6 5 4 3 3 3 3 3 3 3 3 3 2 1 1 1 1 1 1 0 1 1
4 3 3 3 2 2 8 5 2 3 6 6 5 4 3 2 2 4 8 7 7 7 6 6 7 6 6 5 4 3 3 3 2 2 3 3 3 3 3 1 1 0 1 1 1 1 0 1 1
3 1 2 3 2 3 6 4 3 3 5 6 5 4 2 3 3 2 4 7 7 7 6 5 6 6 5 4 4 3 3 3 2 2 2 2 3 3 3 2 1 1 1 1 0 1 1 1 2
5 3 2 2 1 5 6 3 4 5 5 5 4 4 4 5 4 5 6 7 6 7 7 6 6 5 5 4 3 3 3 1 2 2 2 3 3 4 3 2 2 2 2 2 1 0 0 1 2
5 3 1 1 1 5 5 4 4 6 5 5 4 5 5 6 4 5 6 7 7 7 7 6 5 4 3 3 2 2 1 1 1 1 2 3 3 3 3 2 2 2 2 1 1 1 1 1 1
2 2 1 1 2 4 3 1 3 6 6 8 8 7 7 6 5 6 6 6 6 6 6 6 6 4 3 2 2 2 2 1 1 1 1 1 2 3 4 3 2 2 2 2 2 2 1 2 1
1 3 4 4 2 4 4 3 1 2 3 5 7 7 7 9 9 9 9 7 7 7 7 7 6 5 4 3 3 3 3 3 3 2 1 1 1 2 2 3 3 2 2 1 1 2 2 1 2
1 1 5 6 5 0 2 0 4 3 2 4 6 7 9 9 9 9 9 8 8 7 7 6 6 5 4 4 4 4 3 2 1 1 1 2 2 0 1 2 3 3 2 2 1 2 1 1 1
3 4 4 4 4 3 2 2 5 2 4 7 9 9 10 10 10 10 10 10 9 9 7 6 6 5 5 5 5 5 3 2 1 1 2 2 3 2 1 2 2 2 1 1 1 1 1 1 1
6 6 6 5 5 3 1 2 5 5 8 8 8 9 11 11 10 9 9 8 8 7 7 7 7 5 5 6 5 6 5 3 3 2 2 2 2 2 2 2 2 2 1 1 1 1 1 1 1
4 6 5 6 5 2 3 2 8 8 7 10 11 11 12 11 10 9 10 10 9 9 9 8 8 6 6 6 5 5 5 4 4 2 1 1 1 1 1 1 1 1 1 1 1 1 1 2 2
2 7 6 3 3 3 3 3 7 5 7 9 10 11 11 11 11 11 12 11 11 11 10 9 8 7 6 6 5 5 5 4 3 3 3 2 1 1 1 1 0 1 1 1 1 1 2 2 3
3 2 6 7 2 1 4 5 6 1 6 8 10 10 11 12 12 12 11 11 11 11 11 10 9 7 7 6 5 5 5 4 4 3 2 2 2 2 2 1 1 2 2 2 2 2 3 3 3
5 5 5 5 5 1 4 4 5 5 7 9 10 11 11 11 11 11 11 11 10 10 9 9 9 8 7 7 6 5 5 5 4 3 2 2 2 2 1 2 2 2 2 3 2 2 3 3 3
2 3 4 4 6 6 4 8 9 12 11 12 13 13 13 13 13 12 10 9 9 9 9 9 8 7 6 6 5 5 5 4 4 3 3 3 2 2 2 3 3 3 3 3 3 3 4 4 4
4 5 7 5 4 5 5 9 7 12 12 12 12 12 12 13 12 11 10 9 9 10 9 9 8 7 7 6 6 6 5 4 4 3 3 3 3 3 3 3 3 4 4 4 4 5 4 4 5
Wind_Direction
169 167 170 186 52 49 280 257 256 289 316 342 76 107 110 88 132 140 127 139 137 142 146 145 142 139 137 134 133 131 130 128 127 126 126 125 125 125 124 124 121 118 117 115 113 111 109 107 107
160 171 168 38 80 43 278 255 273 283 308 354 30 76 71 67 79 101 118 137 137 139 141 144 141 140 139 137 137 136 135 133 133 133 132 131 131 131 130 129 126 124 122 120 118 116 114 112 110
178 182 143 94 131 197 248 242 249 304 358 6 35 49 58 83 97 102 131 135 132 135 139 145 142 140 139 140 140 140 140 140 140 140 139 138 138 136 135 133 132 131 129 127 125 123 120 117 114
165 123 40 96 238 241 241 252 238 30 36 34 90 62 52 67 97 124 133 135 130 133 138 144 141 140 140 141 142 142 144 144 144 145 145 144 144 143 142 142 140 139 138 135 133 131 129 127 124
105 111 92 280 254 252 253 243 170 62 68 75 85 86 47 45 110 127 134 135 133 134 139 142 141 141 142 143 144 144 146 147 148 149 150 150 152 152 151 151 150 147 147 145 143 142 142 141 137
88 106 102 264 265 277 265 180 125 100 98 85 82 89 73 119 123 131 133 133 133 134 136 140 142 143 143 144 146 147 148 149 151 153 155 157 157 156 157 158 159 157 155 156 156 155 157 161 162
153 148 233 259 280 273 228 143 134 131 112 101 120 97 115 136 134 134 131 128 129 133 134 135 141 145 147 148 149 150 151 153 155 157 160 162 163 165 166 167 169 168 167 169 171 173 175 179 185
175 104 303 293 297 301 80 100 103 112 110 119 111 123 153 151 131 129 125 125 130 135 133 130 133 137 142 147 152 153 154 157 159 162 165 167 171 174 176 176 181 182 182 182 183 186 191 195 203
180 81 266 258 251 278 67 92 83 78 99 77 91 134 141 131 121 126 122 125 136 141 140 147 149 149 147 150 157 156 158 162 164 168 171 168 169 177 184 191 192 193 194 194 194 196 201 208 218
155 186 240 237 214 163 78 84 107 102 88 79 76 97 117 123 130 138 137 144 152 155 159 163 162 160 162 165 148 153 159 161 161 162 165 161 166 185 190 200 201 200 200 200 203 209 211 211 222
187 210 248 281 221 114 94 68 82 122 101 156 150 139 123 120 134 139 143 150 159 161 162 167 166 164 167 148 149 158 156 156 161 167 171 164 163 180 191 188 206 204 205 207 219 219 216 209 207
220 248 248 248 84 71 90 102 80 83 128 133 132 128 122 128 144 142 141 146 158 157 152 158 157 154 151 139 152 156 152 156 161 167 167 155 158 160 167 176 186 181 178 197 220 208 214 218 220
239 256 297 99 91 96 89 84 102 89 108 119 113 108 114 122 119 118 127 136 155 149 140 136 134 134 126 122 137 136 138 148 153 143 155 153 144 145 145 159 165 176 177 188 206 214 217 219 228
280 316 339 71 85 82 93 88 90 92 94 103 102 105 110 107 132 142 143 147 153 143 134 129 117 119 116 114 116 124 130 134 128 125 137 138 135 137 128 122 132 182 194 193 204 215 214 224 225
328 344 346 21 68 92 94 63 74 115 95 91 96 103 97 100 140 146 148 147 145 138 131 126 120 115 111 109 113 118 122 116 117 128 138 137 133 130 121 128 138 180 189 183 187 206 177 234 241
358 5 335 323 51 56 87 97 126 138 110 106 102 102 86 99 144 153 140 133 130 130 127 126 121 114 111 112 113 115 115 116 126 138 140 143 140 132 125 133 142 174 130 122 138 130 143 275 282
353 291 274 315 33 82 91 135 151 149 123 125 127 128 150 131 158 175 133 134 133 128 126 116 116 114 112 111 107 105 105 114 136 139 136 141 141 140 134 132 118 91 79 56 65 101 141 263 286
255 238 250 265 352 91 99 123 144 152 151 148 158 163 172 159 187 179 151 143 131 129 129 123 111 106 104 92 82 75 75 87 120 138 149 144 141 138 131 118 90 79 68 35 22 8 307 241 266
220 191 197 222 164 97 111 135 155 167 165 154 175 182 185 167 189 177 149 146 137 130 126 120 113 111 105 96 97 100 100 104 106 147 164 158 147 134 123 117 96 85 81 48 11 12 348 320 344
193 159 148 116 132 113 125 160 174 171 176 180 183 181 184 177 171 172 163 153 144 142 135 127 124 129 125 122 132 133 125 112 110 83 86 133 134 136 139 137 129 115 93 55 38 45 31 337 23
95 163 172 162 112 76 98 13 305 210 174 177 177 174 183 176 175 171 165 161 154 153 148 142 141 136 128 117 92 73 60 48 42 42 31 17 97 133 145 154 142 129 115 96 59 79 87 341 332
64 139 137 134 123 74 107 177 272 222 197 185 181 184 184 181 175 170 166 166 165 163 153 148 143 139 136 122 109 109 110 109 131 134 27 2 10 340 169 152 144 139 130 125 117 109 117 125 312
139 106 82 99 105 76 35 101 285 173 196 204 193 188 185 181 180 178 176 172 170 164 158 153 146 143 141 133 128 119 117 136 135 81 45 17 3 8 56 120 129 132 133 137 119 77 86 156 196
126 80 51 48 67 50 273 141 266 219 203 195 189 183 181 182 184 183 177 168 166 162 158 153 149 153 151 140 133 133 134 128 102 75 50 20 11 18 42 88 109 130 142 166 202 222 258 248 238
88 81 29 3 13 275 268 191 247 234 198 183 181 180 181 180 179 179 175 173 172 170 167 161 156 159 157 148 145 146 145 136 133 141 129 107 45 12 4 75 107 145 203 216 208 222 260 256 251
155 131 151 196 236 286 314 263 259 243 190 171 169 172 178 181 184 185 183 177 176 175 170 165 164 163 164 159 160 155 147 142 153 163 163 168 185 205 200 140 159 242 254 252 233 238 255 251 254
135 158 160 132 108 18 307 307 314 142 154 161 168 172 181 187 186 187 183 178 175 174 174 171 166 165 169 168 162 159 158 158 170 179 170 181 201 198 179 196 243 263 262 259 250 246 261 262 256
158 151 98 111 137 200 290 275 240 210 191 182 181 186 193 189 188 186 183 178 175 171 168 165 163 168 172 169 168 164 169 170 172 168 180 198 213 211 220 252 260 269 272 270 257 255 260 261 263
146 142 126 134 153 152 214 257 222 204 197 191 196 195 192 188 187 185 180 172 165 159 159 161 165 166 168 170 167 161 170 171 166 172 192 199 209 213 222 235 244 256 261 262 251 252 258 257 264
191 185 149 153 198 166 176 259 240 196 197 194 197 199 194 186 182 175 167 160 158 160 164 166 169 171 176 174 168 170 174 171 176 193 205 200 204 216 223 229 239 251 253 250 244 252 256 250 256